Location: Forst
(46.9333°N, 15.4333°E)
Time: 15:54:36
(UTC+00:00)

USA 238 - Pass Details

Date: 01 December 2020
Orbit: 996 x 1216 km, 63.4° (Epoch: 22 January)

Event Time Altitude Azimuth Distance (km) Brightness Sun altitude
Rises 17:02:10 0° 194° (SSW) 3,711 6.9 -18.3°
Reaches altitude 10° 17:04:48 10° 189° (S) 2,778 6.1 -18.7°
Maximum altitude 17:10:57 45° 118° (ESE) 1,372 3.9 -19.7°
Enters shadow 17:13:13 34° 73° (ENE) 1,657 4.1 -20.1°
